Tracking 19636 objects as of 24-May-2019
HD Live streaming from Space Station
objects crossing your sky now

APRIZESAT 7

Track APRIZESAT 7 now!
10-day predictions
APRIZESAT 7 is classified as:


NORAD ID: 39416
Int'l Code: 2013-066A
Perigee: 594.3 km
Apogee: 654.2 km
Inclination: 97.5 °
Period: 97.0 minutes
Semi major axis: 6995 km
RCS: 14.8953 m2 (large)
Launch date: November 21, 2013
Source: United States (US)
Launch site: Orenburg, Russia (OREN)
aabbcc
Your satellite tracking list
Your tracking list is empty




NASA's NSSDC Master Catalog

Two Line Element Set (TLE):
1 39416U 13066A   19144.01862185  .00000014  00000-0  77625-5 0  9996
2 39416  97.5460 169.4563 0042827  90.6256 269.9867 14.83884321297895
Source of the keplerian elements: AFSPC